Regional Weather Roundup
Issued by NWS

Home | Current Version | Previous Version | Text Only | Print | Product List | Glossary On
Versions: 1 2 3 4 5 6 7 8 9 10 11 12 13 14 15 16 17 18 19 20 21 22 23 24 25 26 27 28 29 30 31 32 33 34 35 36 37 38 39 40 41 42 43 44 45 46 47 48 49 50
000
ASUS43 KLMK 261702
RWRKY
KENTUCKY REGIONAL WEATHER ROUNDUP
NATIONAL WEATHER SERVICE LOUISVILLE KY
1200 PM EST MON JAN 26 2015

NOTE "FAIR" INDICATES FEW OR NO CLOUDS BELOW 12,000 FEET
WITH NO SIGNIFICANT WEATHER AND/OR OBSTRUCTIONS TO VISIBILITY.

KYZ001>023-026-027-061>063-070>075-261800-
WESTERN AND SOUTH CENTRAL KENTUCKY

CITY           SKY/WX    TMP DP  RH WIND       PRES   REMARKS
PADUCAH        MOSUNNY   34  24  67 NW10      30.07F WCI  26
HENDERSON      CLOUDY    30  25  80 W13       30.05F WCI  20
OWENSBORO      CLOUDY    32  27  82 NW10      30.04R WCI  24
HOPKINSVILLE   CLOUDY    32  27  83 NW12      30.05R WCI  23
BOWLING GREEN  CLOUDY    32  25  75 NW10      30.02S WCI  24
GLASGOW        NOT AVBL
$$

KYZ024-025-028>034-038-045-046-053-261800-
NORTH CENTRAL KENTUCKY

CITY           SKY/WX    TMP DP  RH WIND       PRES   REMARKS
LOUISVILLE/SDF CLOUDY    30  22  72 NW10      29.98F WCI  21
LOUISVILLE/LOU CLOUDY    28  20  71 W8        29.98F WCI  20
FORT KNOX      CLOUDY    28  22  79 NW8       29.97R WCI  20
$$

KYZ035>037-039>044-047>052-055>060-089>105-261800-
NORTHEAST KENTUCKY

CITY           SKY/WX    TMP DP  RH WIND       PRES   REMARKS
LEXINGTON      CLOUDY    25  21  85 W10       29.91F WCI  15
COVINGTON      PTSUNNY   25  17  72 NW10      29.91F WCI  15
FRANKFORT      CLOUDY    27  20  75 NW9       29.92F WCI  18
$$

KYZ054-064>069-076>088-106>120-261800-
SOUTHEAST KENTUCKY

CITY           SKY/WX    TMP DP  RH WIND       PRES   REMARKS
JACKSON        LGT SNOW  25  22  88 W9G20     29.84S FOG     WCI  15
LONDON         CLOUDY    27  21  78 W13       29.90R WCI  16
SOMERSET       NOT AVBL
MIDDLESBORO    NOT AVBL
MONTICELLO     CLOUDY    29  26  88 NW12      29.97R WCI  19
$$



USA.gov is the U.S. government's official web portal to all federal, state and local government web resources and services.